[[{"header":{"parameterUnit":"m.s-1","parameterCategory":1,"la1":30.2991,"la2":30.254,"lo1":-89.0895,"lo2":-89.0444,"dy":0.0017,"dx":0.0017,"nx":28,"ny":28,"refTime":"2023-09-27T21:00:00:Z","depth":0,"parameterNumber":2,"parameterNumberName":"U-component_of_WINDS"},"data":[0,0,0,0,0,0,0,0,0,0,0,0,0,0,0,0,0,0,0,0,0,0,0,0,0,0,0,0,0,0,0,0,0,0,0,0,0,0,0,0,0,0,0,0,0,0,0,0,0,0,0,0,0,0,0,0,0,0,-4.689,-4.689,0,-4.694,-4.6941,-4.6941,-4.6793,-4.6788,-4.6784,-4.6779,-4.6839,-4.6844,-4.685,0,0,0,0,0,0,0,0,0,0,0,0,0,-4.6673,-4.6678,-4.689,-4.689,-4.6891,-4.694,-4.6941,-4.6942,-4.6794,-4.6788,-4.6782,-4.6777,-4.6837,-4.6844,-4.6851,0,0,0,0,0,0,0,0,0,0,0,0,0,-4.675,-4.6679,-4.6889,-4.6823,-4.6817,-4.694,-4.6941,-4.6942,-4.6795,-4.6788,-4.6781,-4.6775,-4.6834,-4.6843,-4.6852,-4.7043,0,0,-4.6878,-4.6882,0,0,0,0,0,0,0,0,-4.6746,-4.6758,-4.6832,-4.6828,-4.6822,-4.6853,-4.6886,-4.6976,-4.6797,-4.6804,-4.6779,-4.6771,-4.6849,-4.6857,-4.6881,-4.7046,-4.7049,-4.6879,-4.6885,-4.6888,-4.6891,0,0,0,0,0,0,0,-4.6741,-4.6755,-4.691,-4.6833,-4.6827,-4.6793,-4.6796,-4.6902,-4.6865,-4.6802,-4.6792,-4.6799,-4.6845,-4.6873,-4.6882,-4.705,-4.6879,-4.6887,-4.6892,-4.6896,-4.7375,-4.7382,0,0,0,0,0,0,-4.6743,-4.6752,-4.6908,-4.6911,-4.6766,-4.6802,-4.6806,-4.685,-4.6863,-4.6858,-4.6805,-4.6792,-4.6862,-4.6872,-4.6883,-4.7107,-4.6888,-4.6896,-4.6901,-4.7367,-4.7376,-4.7385,0,0,0,0,0,0,-4.6739,-4.6758,-4.6906,-4.6829,-4.6845,-4.6813,-4.6864,-4.6855,-4.6882,-4.6865,-4.6858,-4.684,-4.6857,-4.6871,-4.7004,-4.7107,-4.69,-4.6908,-4.7359,-4.737,-4.7381,-4.7559,0,0,0,0,0,0,-4.6733,-4.6757,-4.6828,-4.6831,-4.6849,-4.7024,-4.687,-4.6861,-4.6897,-4.688,-4.6896,-4.6892,-4.6852,-4.6992,-4.7013,-4.7116,-4.6915,-4.7349,-4.7364,-4.7377,-4.7543,-4.7574,-4.7601,0,0,0,0,0,-4.6726,-4.6878,-4.6832,-4.6852,-4.6936,-4.703,-4.7041,-4.699,-4.6906,-4.6977,-4.6967,-4.6892,-4.7094,-4.7007,-4.7029,-4.7136,-4.7342,-4.736,-4.7376,-4.753,-4.7568,-4.76,0,0,0,0,0,0,-4.6889,-4.6877,-4.6826,-4.6983,-4.7009,-4.7005,-4.7093,-4.7032,-4.7084,-4.7067,-4.7004,-4.7009,-4.7154,-4.7159,-4.7062,-4.7323,-4.7204,-4.7226,-4.7314,-4.735,-4.7378,-4.7373,-4.6923,0,0,0,0,0,-4.6944,-4.7018,-4.7004,-4.7144,-4.716,-4.7125,-4.7164,-4.7123,-4.7148,-4.7158,-4.7157,-4.7187,-4.7256,-4.7304,-4.7367,-4.7545,-4.7546,-4.763,-4.7659,-4.7683,-4.7702,-4.7796,-4.7833,-4.744,-4.744,-4.7439,0,0,-4.7056,-4.7059,-4.711,-4.7177,-4.7192,-4.7273,-4.7135,-4.7227,-4.7287,-4.7173,-4.7297,-4.7299,-4.7328,-4.7483,-4.7552,-4.7492,-4.7811,-4.7704,-4.7723,-4.7729,-4.7817,-4.7854,-4.7887,-4.7451,-4.7449,-4.7447,0,0,-4.7302,-4.7312,-4.7429,-4.7447,-4.747,-4.7447,-4.7476,-4.7482,-4.7477,-4.7601,-4.7517,-4.759,-4.7712,-4.7735,-4.7764,-4.8022,-4.7955,-4.8045,-4.8195,-4.8288,-4.8319,-4.8346,-4.8437,-4.847,-4.8065,-4.8065,-4.8066,0,-4.744,-4.7556,-4.7498,-4.7594,-4.7627,-4.7527,-4.7646,-4.7667,-4.7712,-4.7738,-4.767,-4.7821,-4.7833,-4.7993,-4.8056,-4.8083,-4.8114,-4.8041,-4.8318,-4.8345,-4.8369,-4.8455,-4.849,-4.8076,-4.8075,-4.8074,-4.8073,0,-4.7723,-4.7806,-4.7898,-4.7941,-4.7984,-4.8093,-4.8053,-4.8105,-4.8061,-4.8046,-4.8174,-4.8186,-4.825,-4.8286,-4.8245,-4.8441,-4.8403,-4.8328,-4.8206,-4.8418,-4.8498,-4.8531,-4.8091,-4.8087,-4.8084,-4.8081,0,0,-4.807,-4.8081,-4.8115,-4.8133,-4.8154,-4.8217,-4.8323,-4.8383,-4.8428,-4.8465,-4.8551,-4.8658,-4.8588,-4.8621,-4.8582,-4.8664,-4.8867,-4.8579,-4.8579,-4.8631,-4.9083,-4.9137,-4.9176,-4.8824,-4.883,-4.8835,-4.908,0,-4.8311,-4.8487,-4.8439,-4.8616,-4.8691,-4.8599,-4.8691,-4.8715,-4.8704,-4.8769,-4.8759,-4.8834,-4.8738,-4.8757,-4.8834,-4.8826,-4.8957,-4.8808,-4.8905,-4.8909,-4.8897,-4.9218,-4.9275,-4.9505,-4.9111,-4.9116,-4.912,0,-4.8614,-4.8659,-4.8842,-4.885,-4.888,-4.8963,-4.9015,-4.9078,-4.9105,-4.9091,-4.9129,-4.9074,-4.918,-4.9061,-4.9206,-4.9106,-4.9144,-4.9147,-4.9155,-4.9159,-4.9025,-4.9229,-4.9578,-4.9612,-4.9169,-4.9165,-4.9162,0,-4.8846,-4.8954,-4.9076,-4.9096,-4.9109,-4.9169,-4.9178,-4.9197,-4.9237,-4.9284,-4.931,-4.937,-4.9403,-4.9452,-4.9416,-4.9333,-4.9569,-4.9446,-4.9561,-4.9562,-4.9612,-4.9609,-4.9969,-4.9641,-4.9641,-4.964,-4.9639,0,-4.9118,-4.9234,-4.9181,-4.9257,-4.9384,-4.933,-4.9459,-4.9458,-4.9477,-4.9552,-4.9479,-4.9552,-4.9501,-4.9572,-4.9546,-4.967,-4.9686,-4.9679,-4.967,-4.9684,-4.9685,-4.9706,-4.9688,-4.9649,-4.9647,-4.9646,-4.9644,0,-4.9398,-4.9367,-4.9495,-4.9497,-4.95,-4.9594,-4.9597,-4.9669,-4.9654,-4.9751,-4.9771,-4.9748,-4.9827,-4.9797,-4.9882,-4.9864,-5.0022,-4.9994,-5.0012,-5.0004,-5.012,-5.0109,-5.0504,-5.0553,-5.0197,-5.02,-5.0203,0,-4.9571,-4.9658,-4.9669,-4.9713,-4.9726,-4.9799,-4.9838,-4.9791,-4.9836,-4.9873,-4.9941,-5.0013,-5.0067,-5.0198,-5.0191,-5.0256,-5.0227,-5.0361,-5.0236,-5.0247,-5.0226,-5.0221,-5.0229,-5.0385,-5.0389,-5.0393,-5.0395,0,-4.9883,-4.9864,-4.9922,-4.9977,-5.0026,-5.0067,-5.0102,-5.0143,-5.0097,-5.0153,-5.023,-5.0273,-5.0359,-5.0431,-5.049,-5.0501,-5.0442,-5.0435,-5.0465,-5.0479,-5.0485,-5.0481,-5.0078,-5.0426,-5.0423,-5.042,-5.0419,-5.0418,-5.0113,-5.0185,-5.0204,-5.0273,-5.0294,-5.0329,-5.0395,-5.0389,-5.0452,-5.0516,-5.0486,-5.0577,-5.0603,-5.0675,-5.0696,-5.0768,-5.0716,-5.0759,-5.077,-5.0781,-5.0795,-5.0476,-5.0779,-5.0778,-5.0777,-5.0776,-5.0776,0,-5.0419,-5.0427,-5.049,-5.054,-5.0595,-5.0533,-5.0569,-5.062,-5.07,-5.0728,-5.0783,-5.0874,-5.0945,-5.0944,-5.101,-5.1068,-5.1043,-5.1087,-5.1081,-5.1085,-5.0838,-5.0805,-5.1107,-5.1107,-5.1107,-5.1106,-5.1106,-5.1106,-5.0584,-5.0702,-5.0686,-5.0816,-5.0824,-5.091,-5.0936,-5.0969,-5.0991,-5.1095,-5.1152,-5.1151,-5.1168,-5.1235,-5.1298,-5.1296,-5.1324,-5.1378,-5.1366,-5.1135,-5.1102,-5.1071,-5.1039,-5.1385,-5.1385,-5.1606,-5.1608,-5.161]},{"header":{"parameterUnit":"m.s-1","parameterCategory":1,"la1":30.2991,"la2":30.254,"lo1":-89.0895,"lo2":-89.0444,"dy":0.0017,"dx":0.0017,"nx":28,"ny":28,"refTime":"2023-09-27T21:00:00:Z","depth":0,"parameterNumber":3,"parameterNumberName":"V-component_of_WINDS"},"data":[0,0,0,0,0,0,0,0,0,0,0,0,0,0,0,0,0,0,0,0,0,0,0,0,0,0,0,0,0,0,0,0,0,0,0,0,0,0,0,0,0,0,0,0,0,0,0,0,0,0,0,0,0,0,0,0,0,0,1.878,1.878,0,1.8812,1.8812,1.8813,1.8833,1.8833,1.8834,1.8834,1.8863,1.8864,1.8864,0,0,0,0,0,0,0,0,0,0,0,0,0,1.8734,1.8735,1.878,1.8781,1.8781,1.8812,1.8812,1.8813,1.8833,1.8833,1.8834,1.8834,1.8863,1.8864,1.8864,0,0,0,0,0,0,0,0,0,0,0,0,0,1.8759,1.8735,1.878,1.8795,1.8797,1.8812,1.8812,1.8813,1.8833,1.8833,1.8834,1.8834,1.8863,1.8864,1.8865,1.8866,0,0,1.8868,1.8868,0,0,0,0,0,0,0,0,1.8757,1.876,1.8792,1.8794,1.8796,1.8819,1.8807,1.8831,1.8833,1.8819,1.8834,1.8834,1.8848,1.885,1.8856,1.8868,1.8869,1.8868,1.8868,1.8869,1.8869,0,0,0,0,0,0,0,1.8755,1.8759,1.8793,1.8793,1.8795,1.8799,1.8803,1.8811,1.8832,1.882,1.8822,1.8826,1.8849,1.8855,1.8856,1.8869,1.8868,1.8868,1.8869,1.8869,1.8884,1.8883,0,0,0,0,0,0,1.8752,1.8757,1.8792,1.8794,1.8777,1.88,1.8804,1.8811,1.8832,1.8835,1.8825,1.8827,1.8853,1.8855,1.8858,1.886,1.8869,1.887,1.887,1.8884,1.8884,1.8883,0,0,0,0,0,0,1.8751,1.8755,1.879,1.8776,1.8781,1.88,1.8808,1.8812,1.8817,1.8836,1.8839,1.8828,1.8853,1.8856,1.8864,1.8862,1.887,1.8871,1.8884,1.8884,1.8883,1.8866,0,0,0,0,0,0,1.8749,1.8754,1.8756,1.8776,1.8782,1.8797,1.8808,1.8812,1.8819,1.8821,1.8839,1.8842,1.8854,1.8862,1.8865,1.8863,1.8872,1.8884,1.8884,1.8884,1.8867,1.8866,1.8864,0,0,0,0,0,1.8748,1.8749,1.8756,1.876,1.8784,1.8797,1.88,1.8814,1.8819,1.882,1.8832,1.8841,1.8862,1.8863,1.8866,1.8865,1.8884,1.8884,1.8884,1.8868,1.8866,1.8864,0,0,0,0,0,0,1.8728,1.8752,1.876,1.8768,1.8781,1.8801,1.8803,1.8812,1.8822,1.8823,1.884,1.8843,1.8849,1.8858,1.8859,1.8867,1.8874,1.8874,1.8861,1.8859,1.8858,1.8855,1.8872,0,0,0,0,0,1.8724,1.8734,1.8754,1.876,1.8766,1.8783,1.8789,1.8799,1.8812,1.8817,1.8829,1.8841,1.885,1.8855,1.8864,1.8869,1.8872,1.8869,1.8868,1.8866,1.8866,1.8868,1.8866,1.8882,1.8882,1.8882,0,0,1.8717,1.8732,1.8737,1.8756,1.8767,1.8775,1.8787,1.8796,1.8801,1.8818,1.8826,1.8836,1.8849,1.8855,1.8858,1.8862,1.8862,1.8866,1.8864,1.8865,1.8867,1.8866,1.8864,1.8881,1.8881,1.8882,0,0,1.8709,1.8721,1.8727,1.8738,1.8754,1.8765,1.8767,1.8785,1.8792,1.8801,1.8813,1.882,1.8835,1.8844,1.8851,1.8845,1.8854,1.8848,1.8839,1.8841,1.884,1.8839,1.8836,1.8835,1.8848,1.8847,1.8847,0,1.8698,1.8712,1.8728,1.8736,1.8744,1.876,1.8765,1.8774,1.8792,1.8796,1.8801,1.882,1.883,1.8838,1.8837,1.8842,1.8843,1.8846,1.8839,1.8838,1.8837,1.8835,1.8834,1.8847,1.8847,1.8847,1.8847,0,1.8697,1.8707,1.8709,1.8727,1.8735,1.8741,1.8757,1.8763,1.8772,1.8783,1.8791,1.8804,1.8816,1.8818,1.8827,1.8827,1.8829,1.8836,1.8844,1.8835,1.8833,1.8832,1.8845,1.8846,1.8846,1.8846,0,0,1.8677,1.8704,1.8704,1.8712,1.8731,1.8738,1.8745,1.8757,1.8762,1.8773,1.8778,1.8791,1.8797,1.8805,1.8814,1.8816,1.881,1.8823,1.8823,1.8819,1.881,1.8804,1.8802,1.8816,1.8816,1.8816,1.8808,0,1.8671,1.8685,1.8699,1.8707,1.8715,1.8731,1.8736,1.8748,1.8758,1.8765,1.8776,1.8784,1.8792,1.8797,1.8799,1.881,1.8808,1.8811,1.8819,1.8819,1.8815,1.8801,1.8796,1.8788,1.8807,1.8807,1.8807,0,1.8666,1.8677,1.8686,1.8704,1.8708,1.8713,1.8725,1.8732,1.8745,1.8752,1.876,1.8771,1.8777,1.8784,1.8793,1.8794,1.8799,1.8804,1.8804,1.8805,1.8812,1.8801,1.8786,1.8784,1.8806,1.8806,1.8806,0,1.8649,1.8667,1.8675,1.8681,1.8702,1.8705,1.8713,1.8727,1.8733,1.8743,1.8747,1.8758,1.8764,1.8771,1.8784,1.8788,1.879,1.8798,1.8795,1.8795,1.8795,1.8794,1.8779,1.8799,1.8799,1.8799,1.8799,0,1.864,1.8645,1.8667,1.8672,1.8677,1.8693,1.8698,1.8708,1.8719,1.8725,1.8739,1.8744,1.8761,1.8767,1.8777,1.8782,1.8784,1.8789,1.8792,1.8788,1.8787,1.879,1.8791,1.8798,1.8798,1.8798,1.8798,0,1.8622,1.8638,1.8647,1.8666,1.8671,1.8674,1.869,1.8694,1.8705,1.8712,1.8715,1.8731,1.8739,1.8753,1.8765,1.8772,1.8774,1.8779,1.877,1.8772,1.8767,1.8767,1.8753,1.8752,1.8773,1.8772,1.8772,0,1.8616,1.862,1.8639,1.8645,1.8653,1.8662,1.8668,1.8684,1.869,1.8705,1.8707,1.8717,1.8725,1.8738,1.875,1.8759,1.8764,1.8758,1.8765,1.8761,1.8763,1.8762,1.8762,1.8756,1.8756,1.8756,1.8756,0,1.8601,1.8609,1.8619,1.8631,1.8638,1.8648,1.8659,1.8662,1.868,1.8686,1.8695,1.8702,1.8715,1.8724,1.8734,1.8742,1.8751,1.8753,1.8753,1.8749,1.8743,1.8745,1.8765,1.8753,1.8754,1.8754,1.8754,1.8754,1.8588,1.8592,1.8607,1.8617,1.8627,1.8636,1.8641,1.8653,1.8661,1.8673,1.8682,1.869,1.8702,1.8717,1.8725,1.8731,1.8735,1.8734,1.8734,1.8733,1.8732,1.8743,1.8733,1.8733,1.8733,1.8733,1.8733,0,1.8574,1.8584,1.8594,1.8608,1.8616,1.8625,1.8637,1.8642,1.865,1.8661,1.8669,1.8679,1.8687,1.87,1.871,1.8712,1.8716,1.8714,1.8713,1.8715,1.8728,1.8727,1.871,1.871,1.871,1.871,1.871,1.871,1.8568,1.8575,1.8584,1.8595,1.8605,1.8614,1.862,1.8628,1.8637,1.8648,1.8655,1.8664,1.8675,1.8686,1.8694,1.8697,1.8699,1.8695,1.87,1.8712,1.8714,1.8716,1.8715,1.8696,1.8696,1.8686,1.8686,1.8686]}]]